Weather History for Montague, CA

Change the Weather History Date:

Wednesday, January 2, 2013

  Actual Average Record
Temperature  
Mean Temperature 26 °F 35 °F  
Max Temperature 37 °F 44 °F 61 °F (2012)
Min Temperature 14 °F 26 °F 8 °F (1975)
Degree Days  
Heating Degree Days 39 30  
Month to date heating degree days 79 60  
Since 1 July heating degree days 2002 2293  
Cooling Degree Days 0 0  
Month to date cooling degree days 0 0  
Year to date cooling degree days 0 0  
Moisture  
Dew Point 18 °F    
Average Humidity 79    
Maximum Humidity 96    
Minimum Humidity 52    
Precipitation  
Precipitation 0.00 in 0.12 in 1.27 in (1997)
Month to date precipitation 0.00 0.24  
Year to date precipitation 0.00 0.24  
Sea Level Pressure  
Sea Level Pressure 30.40 in    
Wind  
Wind Speed 1 mph (SW)    
Max Wind Speed 6 mph    
Max Gust Speed 8 mph    
Visibility 10 miles    
Events      
T = Trace of Precipitation, MM = Missing Value Source: NWS Daily Summary

Daily Weather History Graph

Daily Weather History Graph

Search for Another Location

Airport:

Trip Planner

Search our weather history database for the weather conditions in past years. The results will help you decide how hot, cold, wet, or windy it might be!

Date:

Astronomy

Jan. 02, 2013 Rise Set
Actual Time 7:37 AM PST 4:51 PM PST
Civil Twilight 7:05 AM PST 5:22 PM PST
Nautical Twilight 6:31 AM PST 5:57 PM PST
Astronomical Twilight 5:57 AM PST 6:31 PM PST
Moon 10:34 PM PST (1/2) 10:16 AM PST (1/2)
Length of Visible Light 10h 16m
Length of Day
9h 13m
Waning Gibbous, 74% of the Moon is Illuminated
Jan 2
Waning Gibbous
Jan 4
Last Quarter
Jan 11
New
Jan 18
First Quarter
Jan 26
Full

Hourly Weather History & Observations

Time (PST) Temp. Windchill Dew Point Humidity Pressure Visibility Wind Dir Wind Speed Gust Speed Precip Events Conditions
12:53 AM 19.0 °F - 16.0 °F 88% 30.48 in 10.0 mi Calm Calm - N/A   Clear
1:53 AM 19.9 °F - 16.0 °F 85% 30.47 in 10.0 mi Calm Calm - N/A   Clear
2:53 AM 17.1 °F - 14.0 °F 88% 30.46 in 10.0 mi Calm Calm - N/A   Clear
3:53 AM 18.0 °F 12.7 °F 14.0 °F 84% 30.45 in 10.0 mi South 3.5 mph - N/A   Clear
4:53 AM 16.0 °F - 12.0 °F 84% 30.44 in 10.0 mi Calm Calm - N/A   Clear
5:53 AM 17.1 °F 11.7 °F 14.0 °F 88% 30.44 in 10.0 mi SSW 3.5 mph - N/A   Clear
6:53 AM 15.1 °F - 12.0 °F 88% 30.46 in 10.0 mi Calm Calm - N/A   Clear
7:53 AM 14.0 °F - 10.9 °F 88% 30.47 in 10.0 mi Calm Calm - N/A   Clear
8:53 AM 19.9 °F - 17.1 °F 89% 30.47 in 10.0 mi Calm Calm - N/A   Clear
9:53 AM 23.0 °F 18.4 °F 21.0 °F 92% 30.46 in 10.0 mi SW 3.5 mph - N/A   Clear
10:53 AM 28.0 °F - 23.0 °F 81% 30.46 in 10.0 mi Calm Calm - N/A   Clear
11:53 AM 30.0 °F - 21.0 °F 69% 30.42 in 10.0 mi Calm Calm - N/A   Clear
12:53 PM 34.0 °F - 23.0 °F 64% 30.38 in 10.0 mi Calm Calm - N/A   Clear
1:53 PM 34.0 °F - 21.9 °F 61% 30.35 in 10.0 mi Calm Calm - N/A   Clear
2:53 PM 36.0 °F - 23.0 °F 59% 30.34 in 10.0 mi Calm Calm - N/A   Clear
3:53 PM 36.0 °F - 19.9 °F 52% 30.34 in 10.0 mi Calm Calm - N/A   Clear
4:53 PM 35.1 °F - 21.0 °F 57% 30.34 in 10.0 mi Calm Calm - N/A   Clear
5:53 PM 28.9 °F - 23.0 °F 78% 30.34 in 10.0 mi Calm Calm - N/A   Clear
6:53 PM 26.1 °F - 21.0 °F 81% 30.35 in 10.0 mi Calm Calm - N/A   Clear
7:53 PM 23.0 °F - 19.9 °F 88% 30.35 in 10.0 mi Calm Calm - N/A   Clear
8:53 PM 25.0 °F 20.7 °F 19.9 °F 81% 30.35 in 10.0 mi SSW 3.5 mph - N/A   Clear
9:53 PM 23.0 °F - 19.0 °F 85% 30.34 in 10.0 mi Calm Calm - N/A   Clear
10:53 PM 21.0 °F - 17.1 °F 85% 30.35 in 10.0 mi Calm Calm - N/A   Clear
11:53 PM 19.9 °F 14.9 °F 17.1 °F 89% 30.34 in 10.0 mi North 3.5 mph - N/A   Clear